Regional Weather Roundup
Issued by NWS

Home | Current Version | Previous Version | Graphics & Text | Print | Product List | Glossary On
Versions: 1 2 3 4 5 6 7 8 9 10 11 12 13 14 15 16 17 18 19 20 21 22 23 24 25 26 27
000
ASUS45 KBOU 292307
RWRCO

WEATHER ROUNDUP FOR COLORADO
NATIONAL WEATHER SERVICE DENVER/BOULDER CO
500 PM MDT SUN MAY 29 2016

NOTE: "FAIR" INDICATES FEW OR NO CLOUDS BELOW 12000 FEET WITH NO
SIGNIFICANT WEATHER AND/OR OBSTRUCTIONS TO VISIBILITY.

COZ001>005-013-030-031-300000-
...NORTHWEST COLORADO...

CITY           SKY/WX    TMP DP  RH WIND       PRES   REMARKS
CRAIG          PTSUNNY   65  35  33 W8        30.15R
HAYDEN         FAIR      61  37  41 SE14      30.16F
MEEKER         FAIR      67  34  29 SE14G20   30.17F
MOUNT WERNER   NOT AVBL
STEAMBOAT SPGS FAIR      65  32  29 E9        30.18F
WALDEN         NOT AVBL
$$

COZ006>008-011-300000-
...WEST CENTRAL VALLEYS...

CITY           SKY/WX    TMP DP  RH WIND       PRES   REMARKS
GRAND JUNCTION FAIR      74  35  24 S21G29    30.05R
MONTROSE       FAIR      70  34  26 NW10      30.17R
EAGLE          MOSUNNY   72  27  18 S17G25    30.16F
RIFLE          PTSUNNY   72  36  26 N14G20    30.11F
DELTA          FAIR      74  30  20 W9G20     30.12F
NUCLA          FAIR      73  30  20 NE9       30.15F
$$

COZ017>023-064>068-300000-
...SOUTHWEST COLORADO...

CITY           SKY/WX    TMP DP  RH WIND       PRES   REMARKS
DURANGO        FAIR      77  15   9 W9        30.10F
CORTEZ         FAIR      81  24  12 S18       30.07F
PAGOSA SPRINGS CLOUDY    67  16  14 N3G22     30.21R
TELLURIDE      PTSUNNY   58  25  28 CALM      30.34S
WOLF CREEK PAS PTSUNNY   46  19  34 SW10G26   30.48F
$$

COZ009-010-012-014-032>034-037-058>063-300000-
...CENTRAL COLORADO...

CITY           SKY/WX    TMP DP  RH WIND       PRES   REMARKS
ASPEN          PTSUNNY   59  33  37 SE10      30.28R
BUENA VISTA    CLOUDY    56  32  40 W13G29    30.26F
COPPER MTN     NOT AVBL
BERTHOUD PASS  FAIR      36  28  75 NE10G25   30.47F
COTTONWOOD PAS PTSUNNY   50  30  46 W24G36    30.35F
GUNNISON       FAIR      61  28  29 N8        30.28F
KREMMLING      FAIR      59  34  38 NW12G18   30.24F
LEADVILLE      FAIR      51  22  31 W10       30.34R
MONARCH PASS   FAIR      43  28  56 W22G29    30.57F
SALIDA         FAIR      66  28  24 W18G28    30.30F
SUNLIGHT       FAIR      52  32  46 CALM      30.43F
WILKERSON PASS PTSUNNY   50  25  37 SW7G17    30.45S
$$

COZ069>075-300000-
...SAN LUIS VALLEY/SANGRE DE CRISTO MOUNTAINS...

CITY           SKY/WX    TMP DP  RH WIND       PRES   REMARKS
ALAMOSA        FAIR      68  29  23 N9        30.20F
LA VETA PASS   FAIR      59  23  25 S6        30.36S
SAGUACHE       FAIR      63  30  29 N3        30.26F
$$

COZ035-036-038>040-300000-
...NORTHERN COLORADO FRONT RANGE...

CITY           SKY/WX    TMP DP  RH WIND       PRES   REMARKS
DENVER INTL AP PTSUNNY   69  43  38 S21G30    30.06F
DMNS CITY PARK   N/A     73  36  26 S9G16     30.07R
AURORA         PTSUNNY   68  43  39 SE17      30.09F
FRONT RANGE AP PTSUNNY   68  41  37 SE14G21   30.09F
ERIE MUNI ARPT RAIN      68  37  31 NW18G30   30.08R
BOULDER MUN AP TSTM      64  39  39 N6G22     30.10R
CENTENNIAL     PTSUNNY   68  42  38 S10       30.10F
BROOMFIELD     PTSUNNY   73  37  27 NW17G23   30.10R
FORT COLLINS   FAIR      45  41  87 CALM      30.09R
LONGMONT       RAIN      64  47  52 NW15      30.11R
$$

COZ041-046-047-076>085-087-088-300000-
...PIKES PEAK/PALMER DIVIDE AND SOUTHERN FOOTHILLS...

CITY           SKY/WX    TMP DP  RH WIND       PRES   REMARKS
COLO. SPRINGS  PTSUNNY   63  40  42 E13       30.15F
A. F. ACADEMY  PTSUNNY   61  39  44 S5        30.16F
SCHRIEVER AFB  NOT AVBL
ELLICOTT         N/A    N/A N/A N/A N22G40    30.15F
FALCON         CLOUDY    58  36  43 NE12      30.20F
FORT CARSON    MOSUNNY   68  43  40 VRB2      30.12F
LIMON          TSTM      60  47  61 MISG      30.11R
MONUMENT HILL  FAIR      57  37  47 S13       30.21S
TRINIDAD       FAIR      78  26  14 W8        30.08F
$$

COZ042>045-048>051-090-091-300000-
...NORTHEAST COLORADO...

CITY           SKY/WX    TMP DP  RH WIND       PRES   REMARKS
GREELEY ARPT   FAIR      73  39  29 NW15      30.05F
AKRON          FAIR      79  43  27 VRB3      30.03F
BURLINGTON     FAIR      83  38  20 W10       30.01S
WRAY           FAIR      82  43  24 CALM      29.98S
STERLING       FAIR      81  45  28 SE5       29.99S
HOLYOKE        NOT AVBL
FORT MORGAN    FAIR      81  38  21 SW8       30.03F
$$

COZ086-089-092>099-300000-
...SOUTHEAST COLORADO...

CITY           SKY/WX    TMP DP  RH WIND       PRES   REMARKS
PUEBLO         LGT RAIN  77  32  19 N13G43    30.03F
LA JUNTA       FAIR      86  34  15 W10       29.98F
LAMAR          LGT RAIN  73  46  38 S25G48    29.96R
SPRINGFIELD      N/A     58  51  78 S15G26    30.17R
$$




USA.gov is the U.S. government's official web portal to all federal, state and local government web resources and services.